Regional Weather Roundup
Issued by NWS

Home | Current Version | Previous Version | Text Only | Print | Product List | Glossary On
Versions: 1 2 3 4 5 6 7 8 9 10 11 12 13 14 15 16 17 18 19 20 21 22 23 24 25 26 27 28
000
ASCA42 TJSJ 060810
RWRPR
PUERTO RICO/U.S. VIRGIN ISLANDS HOURLY WEATHER ROUNDUP
NATIONAL WEATHER SERVICE SAN JUAN PR
400 AM AST FRI MAY 06 2016

PRZ001-004-060900-
PUERTO RICO

CITY           SKY/WX    TMP DP  RH WIND       PRES   REMARKS
SAN JUAN LMM   PTCLDY    79  73  83 SE5       29.89F
PONCE          PTCLDY    77  73  88 CALM      29.91
CEIBA          PTCLDY    79  75  89 SE7       29.93F
$$

PRZ006-007-060900-
U.S. VIRGIN ISLANDS

CITY           SKY/WX    TMP DP  RH WIND       PRES   REMARKS
CHARLOTTE AMA  LGT RAIN  81  77  89 SE10      29.90F FOG
CHRISTIANSTED  PTCLDY    81  75  83 SE9       29.92S
$$

HOURLY WEATHER ROUNDUP FOR THE NEWS MEDIA

CITY           SKY/WX    TMP DP  RH WIND       PRES   REMARKS
ORLANDO        CLEAR     64  44  48 CALM      29.83S
NEW YORK       RAIN      48  46  93 N9        29.66F
NEWARK         LGT RAIN  50  45  83 NE9       29.66F
CHICAGO        PTCLDY    44  39  82 SW3       29.96F
HARTFORD       CLOUDY    46  43  89 VRB7      29.66R
BOSTON         CLOUDY    47  42  83 N9        29.69R
DALLAS         CLEAR     62  52  69 CALM      30.03F
PHILADELPHIA   LGT RAIN  52  47  83 NE6       29.65F
LOS ANGELES    MOCLDY    58  53  84 E5        29.87F
WASHINGTON DC  CLOUDY    52  48  86 N9        29.65F



USA.gov is the U.S. government's official web portal to all federal, state and local government web resources and services.